Home > Weather > Bad Kissingen > Past weeks

Flag for Germany Weather for the Past 2 Weeks in Bad Kissingen, Bavaria, Germany

Now
45 °F

Mostly cloudy.


Feels Like: 41 °F
Forecast: 33 / 41 °F
Wind: 7 mph from West

Location: Illesheim

Current Time: Feb 14, 2016 at 2:37:23 PM

Latest Report: Feb 14, 2016 at 1:58 PM


Visibility: N/A

Pressure: 29.23 "Hg

Humidity: 76%

Dew point: 37 °F

Location of Bad KissingenLocation

Historic Weather in Bad Kissingen — Graph

°F

Bad Kissingen Temperature Yesterday

Maximum temperature yesterday: 41 °F (at 2:58 PM)
Minimum temperature yesterday: 28 °F (at 2:58 AM)
Average temperature yesterday: 36 °F

High & Low Weather Summary for the Past Weeks

 TemperatureHumidityPressure
High55 °F (Feb 6, 2:58 PM)100% (Feb 1, 9:04 AM)30.40 "Hg (Feb 1, 9:04 AM)
Low28 °F (Feb 13, 2:58 AM)58% (Feb 8, 1:58 PM)29.09 "Hg (Feb 14, 3:04 AM)
Average41 °F83%29.81 "Hg
* Reported Jan 30 12:58 PM — Feb 14 12:58 PM, Bad Kissingen, Weather by CustomWeather, © 2016

Note: Actual official high and low records may vary slightly from our data, if they occured in-between our weather recording intervals... More about our weather records

Advertising

Bad Kissingen Weather History for the Previous 24 Hours

 ConditionsComfort  
Time TempWeatherWind HumidityBarometerVisibility
12:58 PM
Sun, Feb 14
46 °FPartly sunny.13 mph73%29.22 "HgN/A
11:58 AM46 °FBroken clouds.10 mph71%29.21 "HgN/A
10:58 AM46 °FScattered clouds.9 mph76%29.19 "HgN/A
9:58 AM44 °FPassing clouds.9 mph78%29.18 "HgN/A
8:58 AM43 °FPassing clouds.12 mph81%29.18 "HgN/A
7:58 AM43 °FOvercast.13 mph81%29.15 "HgN/A
6:58 AM43 °FPassing clouds.10 mph80%29.15 "HgN/A
5:58 AM43 °FPartly cloudy.9 mph87%29.14 "HgN/A
4:58 AM43 °FLight rain. Passing clouds.18 mph87%29.14 "HgN/A
3:58 AM43 °FPartly cloudy.16 mph86%29.13 "HgN/A
3:04 AM43 °FPassing clouds.20 mph87%29.09 "HgN/A
1:58 AM43 °FPassing clouds.14 mph86%29.11 "HgN/A
12:58 AM42 °FLight rain. Overcast.10 mph88%29.12 "HgN/A
11:58 PM
Sat, Feb 13
41 °FPassing clouds.9 mph93%29.13 "HgN/A
10:58 PM41 °FLight rain. Mostly cloudy.5 mph89%29.15 "HgN/A
9:58 PM41 °FPassing clouds.9 mph89%29.16 "HgN/A
8:58 PM40 °FOvercast.7 mph90%29.17 "HgN/A
7:58 PM41 °FOvercast.8 mph90%29.20 "HgN/A
6:58 PM41 °FLight rain. Overcast.6 mph87%29.20 "HgN/A
6:00 PM41 °FPassing clouds.6 mph87%29.18 "HgN/A
5:04 PM41 °FLight rain. Mostly cloudy.3 mph87%29.20 "HgN/A
3:58 PM41 °FBroken clouds.6 mph87%29.26 "HgN/A
2:58 PM41 °FCloudy.5 mph83%29.29 "HgN/A
Weather by CustomWeather, © 2016

See weather overviewHow to use our weather pages